OK2DDS-5 Weather Reports


time (UTC)temp
C
wind
direction
speed
KPH
gust
KPH
rain 1hr
cm
rain 24hr
cm
rain mn
cm
humidity
%
barometer
mb
20260905182244 22 0 1.6 9.7 0.00 0.00 0.00 1012.0
20260905180744 22 0 1.6 11.3 0.00 0.00 0.00 1012.0
20260905175244 22 0 1.6 29.0 0.00 0.00 0.00 1012.0
20260905173744 23 0 1.6 19.3 0.00 0.00 0.00 1012.0
20260905172244 23 0 1.6 19.3 0.00 0.00 0.00 1011.0
20260905170744 24 0 1.6 22.5 0.00 0.00 0.00 1011.0
20260905165244 25 0 1.6 24.1 0.00 0.00 0.00 1011.0
20260905163744 25 0 1.6 22.5 0.00 0.00 0.00 1011.0
20260905162244 25 0 3.2 16.1 0.00 0.00 0.00 1011.0
20260905160744 26 0 3.2 30.6 0.00 0.00 0.00 1011.0
20260905155244 26 0 3.2 35.4 0.00 0.00 0.00 1011.0
20260905153744 26 0 3.2 16.1 0.00 0.00 0.00 1010.0
20260905152244 27 0 3.2 29.0 0.00 0.00 0.00 1010.0
20260905150744 27 0 3.2 17.7 0.00 0.00 0.00 1010.0
20260905145244 27 0 3.2 20.9 0.00 0.00 0.00 1010.0
20260905143744 28 0 3.2 22.5 0.00 0.00 0.00 1010.0
20260905142244 28 0 3.2 14.5 0.00 0.00 0.00 1010.0
20260905140744 28 0 3.2 14.5 0.00 0.00 0.00 1010.0
20260905135244 29 0 3.2 17.7 0.00 0.00 0.00 1010.0
20260905133744 29 0 3.2 17.7 0.00 0.00 0.00 1010.0
20260905132244 29 0 3.2 20.9 0.00 0.00 0.00 1011.0
20260905130744 30 0 3.2 20.9 0.00 0.00 0.00 1010.0
20260905125244 31 0 1.6 11.3 0.00 0.00 0.00 1010.0
20260905123744 31 0 1.6 43.5 0.00 0.00 0.00 1010.0
20260905122244 30 0 3.2 14.5 0.00 0.00 0.00 1010.0
20260905120744 30 0 3.2 24.1 0.00 0.00 0.00 1011.0
20260905115244 30 0 1.6 17.7 0.00 0.00 0.00 1010.0
20260905113744 28 0 3.2 24.1 0.00 0.00 0.00 1011.0
20260905112244 28 0 3.2 14.5 0.00 0.00 0.00 1011.0
20260905110744 30 0 3.2 17.7 0.00 0.00 0.00 1011.0
20260905105244 28 0 1.6 27.4 0.00 0.00 0.00 1011.0
20260905103744 27 0 1.6 14.5 0.00 0.00 0.00 1011.0
20260905102244 27 0 1.6 20.9 0.00 0.00 0.00 1011.0
20260905100744 28 0 1.6 16.1 0.00 0.00 0.00 1011.0
20260905095244 25 0 1.6 14.5 0.00 0.00 0.00 1011.0
20260905093744 24 0 1.6 16.1 0.00 0.00 0.00 1012.0
20260905092244 22 0 1.6 19.3 0.00 0.00 0.00 1012.0
20260905090744 21 0 1.6 30.6 0.00 0.00 0.00 1012.0
20260905085244 20 0 1.6 19.3 0.00 0.00 0.00 1012.0
20260905083744 20 0 0.0 17.7 0.00 0.00 0.00 1012.0
20260905082244 19 0 0.0 11.3 0.00 0.00 0.00 1012.0
20260905080744 18 0 0.0 19.3 0.00 0.00 0.00 1012.0
20260905075244 17 0 0.0 14.5 0.00 0.00 0.00 1012.0
20260905073744 17 0 0.0 32.2 0.00 0.00 0.00 1012.0
20260905072244 17 0 1.6 48.3 0.00 0.00 0.00 1011.0
20260905070744 16 0 1.6 25.7 0.00 0.00 0.00 1011.0
20260905065244 16 0 1.6 37.0 0.00 0.00 0.00 1011.0
20260905063744 16 0 1.6 24.1 0.00 0.00 0.00 1011.0
20260905062244 17 0 3.2 29.0 0.00 0.00 0.00 1011.0
20260905060744 17 0 3.2 33.8 0.00 0.00 0.00 1011.0
20260905055244 17 0 3.2 33.8 0.00 0.00 0.00 1011.0
20260905053744 18 0 1.6 16.1 0.00 0.00 0.00 1011.0
20260905052244 18 0 1.6 20.9 0.00 0.00 0.00 1010.0
20260905050744 18 0 1.6 24.1 0.00 0.00 0.00 1010.0
20260905045244 18 0 1.6 16.1 0.00 0.00 0.00 1010.0
20260905043744 18 0 1.6 11.3 0.00 0.00 0.00 1010.0
20260905042244 18 0 1.6 19.3 0.00 0.00 0.00 1009.0
20260905040744 18 0 1.6 20.9 0.00 0.00 0.00 1009.0
20260905035244 20 0 1.6 24.1 0.00 0.00 0.00 1009.0
20260905033744 19 0 1.6 27.4 0.00 0.00 0.00 1008.0
20260905032244 20 0 3.2 33.8 0.00 0.00 0.00 1008.0
20260905030744 21 0 1.6 20.9 0.00 0.00 0.00 1008.0
20260905025244 21 0 1.6 12.9 0.00 0.00 0.00 1007.0
20260905023744 21 0 1.6 17.7 0.00 0.00 0.00 1007.0
20260905022244 21 0 1.6 19.3 0.00 0.00 0.00 1007.0
20260905020744 21 0 1.6 12.9 0.00 0.00 0.00 1007.0
20260905015244 22 0 1.6 14.5 0.00 0.00 0.00 1006.0
20260905013744 22 0 3.2 16.1 0.00 0.00 0.00 1007.0
20260905012244 23 0 3.2 19.3 0.00 0.00 0.00 1007.0
20260905010744 25 0 3.2 25.7 0.00 0.00 0.00 1006.0
20260905005244 26 0 3.2 19.3 0.00 0.00 0.00 1005.0
20260905003742 27 0 1.6 14.5 0.00 0.00 0.00 1005.0
20260905002242 27 0 3.2 25.7 0.00 0.00 0.00 1004.0
20260905000742 27 0 3.2 24.1 0.00 0.00 0.00 1004.0
20260904235242 24 0 0.0 0.0 0.00 0.00 0.00 1004.0